Weather in At-Bashy Village

Kyrgyzstan     41°10′07″N   75°48′47″E
temp.,
°C
wind,
m/s
gust,
m/s
humid.,
%
clouds,
%
prec.,
mm/h
press.,
hPa
HPBL,
m
3 march, wed
wed300:00−13n115959 0.0 102621
03:00−14nnw016074 0.0 102521
06:00−14nnw016071 0.0 102421
09:00−10nw116679 0.0 102331
12:00−6nnw116790 0.0 1020203
15:00−4ne117096 0.0 1017290
18:00−7nnw018263 0.0 101921
21:00−11nne118457 0.0 102321
4 march, thu
thu400:00−11nnw018272 0.1 102421
03:00−11ene118697 0.0 102521
06:00−13s018190 0.0 102621
09:00−11sw017663 0.0 102721
12:00−6ene117137 0.0 1022156
15:00−4ene117066 0.0 1019225
18:00−6ene127978 0.0 102021
21:00−7nnw1276100 0.0 102321
5 march, fri
fri500:00−8s1286100 0.2 102430
03:00−10nnw1286100 0.2 102521
06:00−9nnw1284100 0.2 102621
09:00−7wnw017887 0.0 102622
12:00−3ene228690 0.1 1025227
15:00−2se128677 0.1 1024280
18:00−4n118888 0.1 102521
21:00−8nnw1188100 0.0 102921
6 march, sat
sat600:00−11nne018069 0.0 102921
03:00−13ne117122 0.0 102921
06:00−14ene126611 0.0 102821
09:00−11ne12650 0.0 102722
12:00−5ne11600 0.0 1021158
15:00−2nw11686 0.0 1016104
18:00−4n016330 0.0 101622
21:00−5ene0265100 0.0 101923
7 march, sun
sun700:00−5se1266100 0.0 101922
03:00−8ese1266100 0.0 101921
06:00−7n1270100 0.0 101921
09:00−5wnw1176100 0.1 101837
12:00−3ese1169100 0.1 1015199
15:00−2nnw1179100 0.0 1013219
18:00−5n0185100 0.0 101421
21:00−8ne118775 0.0 101821